| time (UTC) | temp F | wind direction | speed knots | gust knots | rain 1hr in | rain 24hr in | rain mn in | humidity % | barometer mb |
| 20260906123011 | 77 | 238 | 0.0 | 0.0 | 0.00 | 0.00 | 0.00 | 94 | 1012.6 |
| 20260906122505 | 77 | 235 | 0.0 | 0.0 | 0.00 | 0.00 | 0.00 | 94 | 1012.7 |
| 20260906122005 | 77 | 235 | 0.0 | 0.0 | 0.00 | 0.00 | 0.00 | 94 | 1012.8 |
| 20260906121505 | 77 | 232 | 0.0 | 0.0 | 0.00 | 0.00 | 0.00 | 94 | 1012.8 |
| 20260906121004 | 77 | 232 | 0.0 | 0.0 | 0.00 | 0.00 | 0.00 | 94 | 1012.8 |
| 20260906120503 | 76 | 232 | 0.0 | 0.0 | 0.00 | 0.00 | 0.00 | 94 | 1012.8 |
| 20260906120003 | 76 | 232 | 0.0 | 0.0 | 0.00 | 0.00 | 0.00 | 94 | 1012.8 |
| 20260906115502 | 76 | 232 | 0.0 | 2.6 | 0.00 | 0.00 | 0.00 | 95 | 1012.8 |
| 20260906115001 | 76 | 216 | 0.0 | 1.7 | 0.00 | 0.00 | 0.00 | 95 | 1012.7 |
| 20260906114501 | 76 | 194 | 0.0 | 0.0 | 0.00 | 0.00 | 0.00 | 95 | 1012.6 |
| 20260906114004 | 76 | 192 | 0.0 | 0.0 | 0.00 | 0.00 | 0.00 | 94 | 1012.6 |
| 20260906113600 | 76 | 192 | 0.0 | 0.0 | 0.00 | 0.00 | 0.00 | 94 | 1012.6 |
| 20260906113201 | 76 | 192 | 0.0 | 0.0 | 0.00 | 0.00 | 0.00 | 94 | 1012.5 |
| 20260906112559 | 76 | 192 | 0.0 | 0.0 | 0.00 | 0.00 | 0.00 | 94 | 1012.4 |
| 20260906112059 | 76 | 192 | 0.0 | 0.0 | 0.00 | 0.00 | 0.00 | 94 | 1012.3 |
| 20260906111559 | 76 | 192 | 0.0 | 0.0 | 0.00 | 0.00 | 0.00 | 94 | 1012.1 |
| 20260906111101 | 76 | 192 | 0.0 | 0.0 | 0.00 | 0.00 | 0.00 | 94 | 1012.1 |
| 20260906110600 | 76 | 192 | 0.0 | 0.0 | 0.00 | 0.00 | 0.00 | 94 | 1012.1 |
| 20260906110100 | 76 | 192 | 0.0 | 0.0 | 0.00 | 0.00 | 0.00 | 94 | 1012.0 |
| 20260906105557 | 76 | 192 | 0.0 | 0.0 | 0.00 | 0.00 | 0.00 | 94 | 1012.0 |
| 20260906105057 | 76 | 192 | 0.0 | 0.9 | 0.00 | 0.00 | 0.00 | 94 | 1011.9 |
| 20260906104556 | 76 | 192 | 0.0 | 0.9 | 0.00 | 0.00 | 0.00 | 94 | 1011.9 |
| 20260906104058 | 76 | 192 | 0.0 | 0.9 | 0.00 | 0.00 | 0.00 | 94 | 1011.9 |
| 20260906103556 | 76 | 192 | 0.0 | 0.0 | 0.00 | 0.00 | 0.00 | 94 | 1011.9 |
| 20260906103056 | 76 | 192 | 0.0 | 0.0 | 0.00 | 0.00 | 0.00 | 94 | 1011.8 |
| 20260906102554 | 76 | 192 | 0.0 | 1.7 | 0.00 | 0.00 | 0.00 | 94 | 1011.8 |
| 20260906102054 | 76 | 192 | 0.0 | 0.0 | 0.00 | 0.00 | 0.00 | 94 | 1011.8 |
| 20260906101554 | 76 | 192 | 0.0 | 0.0 | 0.00 | 0.00 | 0.00 | 94 | 1011.7 |
| 20260906101053 | 76 | 192 | 0.0 | 0.0 | 0.00 | 0.00 | 0.00 | 94 | 1011.7 |
| 20260906100553 | 76 | 192 | 0.0 | 0.0 | 0.00 | 0.00 | 0.00 | 94 | 1011.8 |
| 20260906100052 | 76 | 192 | 0.0 | 0.0 | 0.00 | 0.00 | 0.00 | 94 | 1011.8 |
| 20260906095551 | 76 | 192 | 0.0 | 0.0 | 0.00 | 0.00 | 0.00 | 94 | 1011.8 |
| 20260906095051 | 76 | 192 | 0.0 | 0.0 | 0.00 | 0.00 | 0.00 | 94 | 1011.7 |
| 20260906094552 | 76 | 192 | 0.0 | 0.0 | 0.00 | 0.00 | 0.00 | 94 | 1011.8 |
| 20260906094050 | 76 | 192 | 0.0 | 0.0 | 0.00 | 0.00 | 0.00 | 94 | 1011.8 |
| 20260906093552 | 76 | 192 | 0.0 | 0.0 | 0.00 | 0.00 | 0.00 | 94 | 1011.7 |
| 20260906093100 | 76 | 192 | 0.0 | 0.0 | 0.00 | 0.00 | 0.00 | 94 | 1011.6 |
| 20260906092549 | 76 | 192 | 0.0 | 0.0 | 0.00 | 0.00 | 0.00 | 94 | 1011.5 |
| 20260906092049 | 76 | 192 | 0.0 | 0.0 | 0.00 | 0.00 | 0.00 | 94 | 1011.5 |
| 20260906091549 | 76 | 192 | 0.0 | 0.0 | 0.00 | 0.00 | 0.00 | 94 | 1011.5 |
| 20260906091049 | 76 | 192 | 0.0 | 0.0 | 0.00 | 0.00 | 0.00 | 94 | 1011.6 |
| 20260906090548 | 76 | 192 | 0.0 | 0.0 | 0.00 | 0.00 | 0.00 | 94 | 1011.5 |
| 20260906090048 | 76 | 192 | 0.0 | 0.0 | 0.00 | 0.00 | 0.00 | 94 | 1011.5 |
| 20260906085547 | 76 | 192 | 0.0 | 0.0 | 0.00 | 0.00 | 0.00 | 94 | 1011.3 |
| 20260906085047 | 76 | 192 | 0.0 | 0.0 | 0.00 | 0.00 | 0.00 | 94 | 1011.4 |
| 20260906084548 | 76 | 192 | 0.0 | 0.0 | 0.00 | 0.00 | 0.00 | 94 | 1011.5 |
| 20260906084048 | 76 | 192 | 0.0 | 0.0 | 0.00 | 0.00 | 0.00 | 94 | 1011.6 |
| 20260906083548 | 76 | 192 | 0.0 | 0.0 | 0.00 | 0.00 | 0.00 | 94 | 1011.3 |
| 20260906083049 | 76 | 192 | 0.0 | 0.0 | 0.00 | 0.00 | 0.00 | 94 | 1011.3 |
| 20260906082546 | 76 | 192 | 0.0 | 0.0 | 0.00 | 0.00 | 0.00 | 94 | 1011.3 |
| 20260906082050 | 77 | 192 | 0.0 | 0.0 | 0.00 | 0.00 | 0.00 | 94 | 1011.3 |
| 20260906081551 | 76 | 192 | 0.0 | 0.0 | 0.00 | 0.00 | 0.00 | 94 | 1011.1 |
| 20260906081045 | 76 | 192 | 0.0 | 0.0 | 0.00 | 0.00 | 0.00 | 93 | 1011.4 |
| 20260906080545 | 77 | 192 | 0.0 | 0.0 | 0.00 | 0.00 | 0.00 | 93 | 1011.3 |
| 20260906080045 | 77 | 192 | 0.0 | 0.0 | 0.00 | 0.00 | 0.00 | 93 | 1011.2 |
| 20260906075543 | 77 | 192 | 0.0 | 0.0 | 0.00 | 0.00 | 0.00 | 93 | 1011.1 |
| 20260906075043 | 77 | 192 | 0.0 | 0.0 | 0.00 | 0.00 | 0.00 | 93 | 1011.2 |
| 20260906074543 | 77 | 192 | 0.0 | 0.0 | 0.00 | 0.00 | 0.00 | 93 | 1011.2 |
| 20260906074042 | 77 | 192 | 0.0 | 0.0 | 0.00 | 0.00 | 0.00 | 93 | 1011.3 |
| 20260906073542 | 77 | 192 | 0.0 | 0.0 | 0.00 | 0.00 | 0.00 | 93 | 1011.4 |
| 20260906073042 | 77 | 192 | 0.0 | 0.0 | 0.00 | 0.00 | 0.00 | 93 | 1011.2 |
| 20260906072542 | 77 | 192 | 0.0 | 0.0 | 0.00 | 0.00 | 0.00 | 93 | 1011.1 |
| 20260906072043 | 77 | 192 | 0.0 | 0.0 | 0.00 | 0.00 | 0.00 | 93 | 1011.3 |
| 20260906071552 | 77 | 192 | 0.0 | 0.0 | 0.00 | 0.00 | 0.00 | 93 | 1011.3 |
| 20260906071045 | 77 | 192 | 0.0 | 0.0 | 0.00 | 0.00 | 0.00 | 93 | 1011.3 |
| 20260906070541 | 77 | 192 | 0.0 | 0.0 | 0.00 | 0.00 | 0.00 | 93 | 1011.3 |
| 20260906070040 | 77 | 192 | 0.0 | 0.0 | 0.00 | 0.00 | 0.00 | 93 | 1011.3 |
| 20260906065543 | 77 | 192 | 0.0 | 0.0 | 0.00 | 0.00 | 0.00 | 93 | 1011.3 |
| 20260906065040 | 77 | 192 | 0.0 | 0.0 | 0.00 | 0.00 | 0.00 | 93 | 1011.2 |
| 20260906064541 | 78 | 192 | 0.0 | 0.0 | 0.00 | 0.00 | 0.00 | 93 | 1011.2 |
| 20260906064041 | 78 | 192 | 0.0 | 0.0 | 0.00 | 0.00 | 0.00 | 93 | 1011.1 |
| 20260906063542 | 78 | 192 | 0.0 | 0.0 | 0.00 | 0.00 | 0.00 | 93 | 1011.3 |
| 20260906063038 | 78 | 192 | 0.0 | 0.0 | 0.00 | 0.00 | 0.00 | 93 | 1011.3 |
| 20260906062537 | 78 | 192 | 0.0 | 0.0 | 0.00 | 0.00 | 0.00 | 93 | 1011.3 |
| 20260906062040 | 78 | 192 | 0.0 | 0.0 | 0.00 | 0.00 | 0.00 | 93 | 1011.3 |
| 20260906061538 | 78 | 192 | 0.0 | 0.0 | 0.00 | 0.00 | 0.00 | 93 | 1011.5 |
| 20260906061036 | 78 | 192 | 0.0 | 0.0 | 0.00 | 0.00 | 0.00 | 93 | 1011.5 |
| 20260906060536 | 78 | 192 | 0.0 | 0.0 | 0.00 | 0.00 | 0.00 | 93 | 1011.5 |
| 20260906060034 | 78 | 192 | 0.0 | 0.9 | 0.00 | 0.00 | 0.00 | 93 | 1011.7 |
| 20260906055533 | 78 | 192 | 0.0 | 0.9 | 0.00 | 0.00 | 0.00 | 93 | 1011.7 |
| 20260906055034 | 78 | 192 | 0.0 | 0.0 | 0.00 | 0.00 | 0.00 | 93 | 1011.8 |
| 20260906054534 | 78 | 192 | 0.0 | 0.0 | 0.00 | 0.00 | 0.00 | 93 | 1011.9 |
| 20260906054033 | 78 | 192 | 0.0 | 0.0 | 0.00 | 0.00 | 0.00 | 93 | 1011.9 |
| 20260906053535 | 78 | 192 | 0.0 | 0.0 | 0.00 | 0.00 | 0.00 | 93 | 1012.0 |
| 20260906053036 | 78 | 192 | 0.0 | 0.0 | 0.00 | 0.00 | 0.00 | 93 | 1011.9 |
| 20260906052533 | 78 | 192 | 0.0 | 0.0 | 0.00 | 0.00 | 0.00 | 93 | 1011.8 |
| 20260906052031 | 78 | 192 | 0.0 | 0.0 | 0.00 | 0.00 | 0.00 | 93 | 1011.8 |
| 20260906051534 | 78 | 192 | 0.0 | 0.0 | 0.00 | 0.00 | 0.00 | 93 | 1011.8 |
| 20260906051031 | 78 | 192 | 0.0 | 0.9 | 0.00 | 0.00 | 0.00 | 93 | 1011.7 |
| 20260906050534 | 78 | 192 | 0.0 | 0.9 | 0.00 | 0.00 | 0.00 | 93 | 1011.9 |
| 20260906050052 | 78 | 192 | 0.0 | 2.6 | 0.00 | 0.00 | 0.00 | 93 | 1011.9 |
| 20260906045530 | 79 | 192 | 0.0 | 2.6 | 0.00 | 0.00 | 0.00 | 93 | 1012.0 |
| 20260906045029 | 79 | 193 | 0.0 | 0.0 | 0.00 | 0.00 | 0.00 | 93 | 1011.8 |
| 20260906044529 | 79 | 192 | 0.0 | 0.0 | 0.00 | 0.00 | 0.00 | 93 | 1011.9 |
| 20260906044031 | 79 | 193 | 0.0 | 0.0 | 0.00 | 0.00 | 0.00 | 93 | 1012.1 |
| 20260906043526 | 79 | 192 | 0.0 | 0.9 | 0.00 | 0.00 | 0.00 | 93 | 1012.1 |
| 20260906043027 | 79 | 192 | 0.0 | 2.6 | 0.00 | 0.00 | 0.00 | 93 | 1012.2 |
| 20260906042525 | 79 | 192 | 0.0 | 1.7 | 0.00 | 0.00 | 0.00 | 93 | 1012.3 |
| 20260906042025 | 79 | 188 | 0.0 | 0.0 | 0.00 | 0.00 | 0.00 | 93 | 1012.3 |
| 20260906041524 | 79 | 188 | 0.0 | 0.0 | 0.00 | 0.00 | 0.00 | 93 | 1012.3 |
| 20260906041022 | 79 | 188 | 0.0 | 0.0 | 0.00 | 0.00 | 0.00 | 93 | 1012.4 |
| 20260906040523 | 79 | 188 | 0.0 | 0.0 | 0.00 | 0.00 | 0.00 | 93 | 1012.3 |
| 20260906040022 | 79 | 188 | 0.0 | 0.0 | 0.00 | 0.00 | 0.00 | 93 | 1012.4 |
| 20260906035521 | 79 | 188 | 0.0 | 0.0 | 0.00 | 0.00 | 0.00 | 93 | 1012.5 |
| 20260906035021 | 80 | 188 | 0.0 | 0.0 | 0.00 | 0.00 | 0.00 | 93 | 1012.5 |
| 20260906034531 | 80 | 188 | 0.0 | 0.0 | 0.00 | 0.00 | 0.00 | 93 | 1012.5 |
| 20260906034021 | 80 | 188 | 0.0 | 0.0 | 0.00 | 0.00 | 0.00 | 92 | 1012.6 |
| 20260906033520 | 80 | 188 | 0.0 | 0.0 | 0.00 | 0.00 | 0.00 | 92 | 1012.6 |
| 20260906033025 | 80 | 188 | 0.0 | 0.0 | 0.00 | 0.00 | 0.00 | 92 | 1012.6 |
| 20260906032520 | 80 | 188 | 0.0 | 0.0 | 0.00 | 0.00 | 0.00 | 92 | 1012.7 |
| 20260906032020 | 80 | 188 | 0.0 | 0.0 | 0.00 | 0.00 | 0.00 | 92 | 1012.8 |
| 20260906031525 | 80 | 188 | 0.0 | 0.0 | 0.00 | 0.00 | 0.00 | 92 | 1012.8 |
| 20260906031021 | 80 | 188 | 0.0 | 0.0 | 0.00 | 0.00 | 0.00 | 92 | 1012.7 |
| 20260906030523 | 80 | 188 | 0.0 | 0.0 | 0.00 | 0.00 | 0.00 | 92 | 1012.7 |
| 20260906030020 | 80 | 188 | 0.0 | 0.0 | 0.00 | 0.00 | 0.00 | 92 | 1012.5 |
| 20260906025519 | 80 | 188 | 0.0 | 0.0 | 0.00 | 0.00 | 0.00 | 92 | 1012.5 |
| 20260906025019 | 80 | 188 | 0.0 | 1.7 | 0.00 | 0.00 | 0.00 | 92 | 1012.5 |
| 20260906024518 | 80 | 186 | 0.0 | 2.6 | 0.00 | 0.00 | 0.00 | 92 | 1012.5 |
| 20260906024019 | 80 | 188 | 0.9 | 2.6 | 0.00 | 0.00 | 0.00 | 92 | 1012.6 |
| 20260906023519 | 80 | 200 | 0.0 | 2.6 | 0.00 | 0.00 | 0.00 | 92 | 1012.6 |
| 20260906023024 | 80 | 202 | 0.0 | 0.0 | 0.00 | 0.00 | 0.00 | 92 | 1012.6 |
| 20260906022518 | 80 | 192 | 0.0 | 0.0 | 0.00 | 0.00 | 0.00 | 92 | 1012.5 |
| 20260906022018 | 80 | 192 | 0.0 | 0.0 | 0.00 | 0.00 | 0.00 | 92 | 1012.6 |
| 20260906021519 | 80 | 192 | 0.0 | 0.0 | 0.00 | 0.00 | 0.00 | 92 | 1012.5 |
| 20260906021018 | 80 | 186 | 0.0 | 0.0 | 0.00 | 0.00 | 0.00 | 92 | 1012.5 |
| 20260906020521 | 81 | 186 | 0.0 | 0.0 | 0.00 | 0.00 | 0.00 | 92 | 1012.3 |
| 20260906020017 | 81 | 186 | 0.0 | 0.0 | 0.00 | 0.00 | 0.00 | 92 | 1012.1 |
| 20260906015516 | 81 | 187 | 0.0 | 0.0 | 0.00 | 0.00 | 0.00 | 92 | 1012.0 |
| 20260906015018 | 81 | 187 | 0.0 | 0.0 | 0.00 | 0.00 | 0.00 | 92 | 1011.9 |
| 20260906014516 | 81 | 187 | 0.0 | 0.0 | 0.00 | 0.00 | 0.00 | 92 | 1011.9 |
| 20260906014018 | 81 | 186 | 0.0 | 0.0 | 0.00 | 0.00 | 0.00 | 92 | 1011.8 |
| 20260906013515 | 81 | 186 | 0.0 | 0.0 | 0.00 | 0.00 | 0.00 | 92 | 1011.9 |
| 20260906013015 | 81 | 186 | 0.0 | 0.0 | 0.00 | 0.00 | 0.00 | 92 | 1011.9 |
| 20260906012615 | 81 | 186 | 0.0 | 0.0 | 0.00 | 0.00 | 0.00 | 92 | 1011.9 |
| 20260906012014 | 81 | 186 | 0.0 | 0.0 | 0.00 | 0.00 | 0.00 | 92 | 1011.9 |
| 20260906011514 | 81 | 180 | 0.0 | 1.7 | 0.00 | 0.00 | 0.00 | 91 | 1011.9 |
| 20260906011013 | 81 | 180 | 0.0 | 1.7 | 0.00 | 0.00 | 0.00 | 91 | 1011.9 |
| 20260906010516 | 81 | 180 | 0.0 | 0.9 | 0.00 | 0.00 | 0.00 | 91 | 1011.8 |
| 20260906010011 | 81 | 185 | 0.0 | 0.9 | 0.00 | 0.00 | 0.00 | 91 | 1011.7 |
| 20260906005515 | 81 | 184 | 0.0 | 0.0 | 0.00 | 0.01 | 0.00 | 91 | 1011.7 |
| 20260906005012 | 81 | 184 | 0.0 | 0.9 | 0.00 | 0.01 | 0.00 | 91 | 1011.5 |
| 20260906004512 | 81 | 184 | 0.0 | 0.9 | 0.00 | 0.01 | 0.00 | 91 | 1011.5 |
| 20260906004011 | 81 | 180 | 0.0 | 0.0 | 0.00 | 0.01 | 0.00 | 91 | 1011.5 |
| 20260906003514 | 81 | 180 | 0.0 | 0.0 | 0.00 | 0.01 | 0.00 | 90 | 1011.5 |
| 20260906003011 | 82 | 180 | 0.0 | 0.0 | 0.00 | 0.01 | 0.00 | 90 | 1011.6 |
| 20260906002512 | 82 | 180 | 0.0 | 0.0 | 0.00 | 0.01 | 0.00 | 90 | 1011.4 |
| 20260906002011 | 82 | 180 | 0.0 | 0.0 | 0.00 | 0.01 | 0.00 | 90 | 1011.3 |
| 20260906001510 | 82 | 180 | 0.0 | 0.0 | 0.00 | 0.01 | 0.00 | 90 | 1011.3 |
| 20260906001010 | 82 | 180 | 0.0 | 0.0 | 0.00 | 0.01 | 0.00 | 89 | 1011.2 |
| 20260906000510 | 82 | 180 | 0.0 | 0.0 | 0.00 | 0.01 | 0.00 | 89 | 1011.1 |
| 20260906000010 | 83 | 180 | 0.0 | 0.0 | 0.00 | 0.01 | 0.00 | 89 | 1011.0 |
| 20260905235510 | 83 | 180 | 0.0 | 2.6 | 0.00 | 0.01 | 0.00 | 89 | 1011.0 |
| 20260905235009 | 83 | 180 | 0.0 | 2.6 | 0.00 | 0.01 | 0.00 | 88 | 1011.0 |
| 20260905234509 | 83 | 173 | 0.0 | 3.5 | 0.00 | 0.01 | 0.00 | 88 | 1011.0 |
| 20260905234012 | 84 | 197 | 0.9 | 3.5 | 0.00 | 0.01 | 0.00 | 87 | 1010.9 |
| 20260905233510 | 84 | 153 | 0.0 | 3.5 | 0.00 | 0.01 | 0.00 | 87 | 1011.0 |
| 20260905233020 | 84 | 157 | 0.9 | 3.5 | 0.00 | 0.01 | 0.00 | 86 | 1011.0 |
| 20260905232514 | 85 | 165 | 0.0 | 1.7 | 0.00 | 0.01 | 0.00 | 86 | 1011.1 |
| 20260905232008 | 85 | 165 | 0.0 | 2.6 | 0.00 | 0.01 | 0.00 | 85 | 1011.0 |
| 20260905231508 | 85 | 165 | 0.0 | 2.6 | 0.00 | 0.01 | 0.00 | 86 | 1011.0 |
| 20260905231006 | 85 | 209 | 0.0 | 2.6 | 0.00 | 0.01 | 0.00 | 86 | 1011.0 |
| 20260905230506 | 85 | 210 | 0.0 | 1.7 | 0.00 | 0.01 | 0.00 | 86 | 1011.2 |
| 20260905230005 | 85 | 210 | 0.0 | 2.6 | 0.00 | 0.01 | 0.00 | 85 | 1011.2 |
| 20260905225504 | 85 | 211 | 0.0 | 2.6 | 0.00 | 0.01 | 0.00 | 85 | 1011.3 |
| 20260905225004 | 85 | 192 | 0.0 | 0.0 | 0.00 | 0.01 | 0.00 | 85 | 1011.5 |
| 20260905224508 | 85 | 192 | 0.0 | 0.0 | 0.00 | 0.01 | 0.00 | 85 | 1011.4 |
| 20260905224004 | 85 | 192 | 0.0 | 2.6 | 0.00 | 0.01 | 0.00 | 85 | 1011.7 |
| 20260905223503 | 85 | 190 | 0.0 | 2.6 | 0.00 | 0.01 | 0.00 | 85 | 1011.7 |
| 20260905223003 | 85 | 199 | 0.0 | 1.7 | 0.00 | 0.01 | 0.00 | 85 | 1011.7 |
| 20260905222503 | 85 | 155 | 0.0 | 1.7 | 0.00 | 0.01 | 0.00 | 85 | 1011.7 |
| 20260905222003 | 85 | 156 | 0.0 | 2.6 | 0.00 | 0.01 | 0.00 | 85 | 1011.9 |
| 20260905221502 | 85 | 198 | 0.0 | 3.5 | 0.00 | 0.01 | 0.00 | 85 | 1011.9 |
| 20260905221002 | 85 | 201 | 0.0 | 3.5 | 0.00 | 0.01 | 0.00 | 85 | 1011.9 |
| 20260905220501 | 85 | 184 | 0.0 | 2.6 | 0.00 | 0.01 | 0.00 | 85 | 1012.0 |
| 20260905220002 | 84 | 158 | 0.9 | 4.3 | 0.00 | 0.01 | 0.00 | 85 | 1011.9 |
| 20260905215500 | 84 | 211 | 0.9 | 4.3 | 0.00 | 0.01 | 0.00 | 85 | 1012.0 |
| 20260905215000 | 84 | 218 | 0.0 | 3.5 | 0.00 | 0.01 | 0.00 | 85 | 1012.0 |
| 20260905214501 | 84 | 213 | 0.9 | 4.3 | 0.00 | 0.01 | 0.00 | 85 | 1012.0 |
| 20260905214001 | 84 | 208 | 0.0 | 4.3 | 0.00 | 0.01 | 0.00 | 86 | 1012.0 |
| 20260905213602 | 83 | 154 | 0.0 | 2.6 | 0.00 | 0.01 | 0.00 | 87 | 1012.0 |
| 20260905213111 | 83 | 128 | 0.0 | 2.6 | 0.00 | 0.01 | 0.00 | 86 | 1011.8 |
| 20260905212600 | 83 | 200 | 0.0 | 2.6 | 0.00 | 0.01 | 0.00 | 87 | 1011.9 |
| 20260905212059 | 83 | 155 | 0.9 | 6.1 | 0.00 | 0.01 | 0.00 | 88 | 1012.0 |
| 20260905211602 | 83 | 186 | 2.6 | 6.1 | 0.00 | 0.01 | 0.00 | 88 | 1012.0 |
| 20260905211059 | 82 | 126 | 0.0 | 2.6 | 0.00 | 0.01 | 0.00 | 88 | 1012.1 |
| 20260905210559 | 82 | 125 | 0.9 | 1.7 | 0.00 | 0.01 | 0.00 | 88 | 1011.9 |
| 20260905210059 | 82 | 202 | 0.0 | 1.7 | 0.00 | 0.01 | 0.00 | 88 | 1012.0 |
| 20260905205558 | 82 | 134 | 0.0 | 1.7 | 0.00 | 0.01 | 0.00 | 88 | 1012.2 |
| 20260905205100 | 82 | 134 | 0.9 | 2.6 | 0.00 | 0.01 | 0.00 | 88 | 1012.1 |
| 20260905204558 | 82 | 142 | 0.0 | 2.6 | 0.00 | 0.01 | 0.00 | 88 | 1012.1 |
| 20260905204059 | 82 | 143 | 0.9 | 5.2 | 0.00 | 0.01 | 0.00 | 88 | 1012.3 |
| 20260905203600 | 82 | 138 | 0.9 | 5.2 | 0.00 | 0.01 | 0.00 | 88 | 1012.4 |
| 20260905203057 | 83 | 145 | 0.9 | 3.5 | 0.00 | 0.01 | 0.00 | 87 | 1012.3 |
| 20260905202556 | 83 | 190 | 0.9 | 2.6 | 0.00 | 0.01 | 0.00 | 86 | 1012.2 |
| 20260905202057 | 83 | 159 | 0.9 | 2.6 | 0.00 | 0.01 | 0.00 | 86 | 1012.2 |
| 20260905201600 | 83 | 182 | 0.0 | 2.6 | 0.00 | 0.01 | 0.00 | 86 | 1012.2 |
| 20260905201056 | 83 | 157 | 0.0 | 1.7 | 0.00 | 0.01 | 0.00 | 85 | 1012.1 |
| 20260905200556 | 84 | 117 | 0.9 | 1.7 | 0.00 | 0.01 | 0.00 | 85 | 1012.1 |
| 20260905200059 | 84 | 114 | 0.0 | 1.7 | 0.00 | 0.01 | 0.00 | 84 | 1012.1 |
| 20260905195555 | 85 | 113 | 0.9 | 1.7 | 0.00 | 0.01 | 0.00 | 83 | 1012.3 |
| 20260905195055 | 85 | 111 | 0.0 | 0.9 | 0.00 | 0.01 | 0.00 | 83 | 1012.4 |
| 20260905194559 | 85 | 111 | 0.0 | 1.7 | 0.00 | 0.01 | 0.00 | 83 | 1012.5 |
| 20260905194056 | 86 | 111 | 0.9 | 1.7 | 0.00 | 0.01 | 0.00 | 81 | 1012.4 |
| 20260905193556 | 86 | 69 | 0.0 | 1.7 | 0.00 | 0.01 | 0.00 | 80 | 1012.4 |
| 20260905193055 | 86 | 69 | 0.0 | 1.7 | 0.00 | 0.01 | 0.00 | 80 | 1012.7 |
| 20260905192558 | 86 | 69 | 0.0 | 0.0 | 0.00 | 0.01 | 0.00 | 79 | 1012.8 |
| 20260905192057 | 86 | 69 | 0.0 | 0.0 | 0.00 | 0.01 | 0.00 | 80 | 1012.3 |
| 20260905191603 | 86 | 69 | 0.0 | 0.9 | 0.00 | 0.01 | 0.00 | 81 | 1012.1 |
| 20260905191054 | 86 | 69 | 0.0 | 1.7 | 0.00 | 0.01 | 0.00 | 80 | 1012.4 |
| 20260905190556 | 86 | 69 | 0.0 | 1.7 | 0.00 | 0.01 | 0.00 | 82 | 1012.7 |
| 20260905190053 | 86 | 71 | 0.0 | 1.7 | 0.00 | 0.01 | 0.00 | 82 | 1013.1 |
| 20260905185556 | 86 | 71 | 0.0 | 4.3 | 0.00 | 0.01 | 0.00 | 81 | 1013.1 |
| 20260905185055 | 86 | 71 | 0.9 | 4.3 | 0.00 | 0.01 | 0.00 | 81 | 1012.7 |
| 20260905184606 | 87 | 306 | 0.0 | 2.6 | 0.00 | 0.01 | 0.00 | 82 | 1013.0 |
| 20260905184052 | 87 | 351 | 0.0 | 2.6 | 0.00 | 0.01 | 0.00 | 80 | 1012.7 |
| 20260905183553 | 87 | 351 | 0.0 | 2.6 | 0.00 | 0.01 | 0.00 | 78 | 1012.6 |
| 20260905183053 | 88 | 328 | 0.9 | 3.5 | 0.00 | 0.01 | 0.00 | 77 | 1013.0 |
| 20260905182555 | 89 | 332 | 0.9 | 4.3 | 0.00 | 0.01 | 0.00 | 75 | 1013.1 |
| 20260905182055 | 91 | 338 | 0.9 | 10.4 | 0.00 | 0.01 | 0.00 | 74 | 1012.8 |
| 20260905181552 | 93 | 339 | 2.6 | 7.0 | 0.00 | 0.01 | 0.00 | 71 | 1012.6 |
| 20260905181051 | 94 | 336 | 0.9 | 3.5 | 0.00 | 0.01 | 0.00 | 69 | 1012.6 |
| 20260905180549 | 94 | 293 | 0.9 | 3.5 | 0.00 | 0.01 | 0.00 | 69 | 1012.6 |
| 20260905180051 | 95 | 314 | 0.0 | 4.3 | 0.00 | 0.01 | 0.00 | 68 | 1012.5 |
| 20260905175546 | 95 | 281 | 0.9 | 2.6 | 0.00 | 0.01 | 0.00 | 67 | 1012.5 |
| 20260905175045 | 94 | 18 | 0.0 | 0.9 | 0.00 | 0.01 | 0.00 | 69 | 1012.7 |
| 20260905174549 | 93 | 19 | 0.0 | 1.7 | 0.00 | 0.01 | 0.00 | 70 | 1012.8 |
| 20260905174041 | 92 | 30 | 0.0 | 3.5 | 0.00 | 0.01 | 0.00 | 72 | 1012.8 |
| 20260905173541 | 92 | 284 | 0.0 | 3.5 | 0.00 | 0.01 | 0.00 | 72 | 1013.0 |
| 20260905173039 | 91 | 323 | 0.9 | 2.6 | 0.00 | 0.01 | 0.00 | 73 | 1013.0 |
| 20260905172542 | 92 | 277 | 0.9 | 2.6 | 0.00 | 0.01 | 0.00 | 72 | 1013.1 |
| 20260905172038 | 91 | 299 | 0.0 | 1.7 | 0.00 | 0.01 | 0.00 | 76 | 1013.2 |
| 20260905171538 | 90 | 299 | 0.0 | 2.6 | 0.00 | 0.01 | 0.00 | 78 | 1013.3 |
| 20260905171035 | 90 | 290 | 0.0 | 2.6 | 0.00 | 0.01 | 0.00 | 78 | 1013.4 |
| 20260905170534 | 89 | 298 | 0.0 | 5.2 | 0.00 | 0.01 | 0.00 | 79 | 1013.5 |
| 20260905170035 | 89 | 344 | 1.7 | 5.2 | 0.00 | 0.01 | 0.00 | 78 | 1013.6 |
| 20260905165534 | 88 | 321 | 0.0 | 2.6 | 0.00 | 0.01 | 0.00 | 79 | 1013.6 |
| 20260905165034 | 88 | 344 | 0.0 | 1.7 | 0.00 | 0.01 | 0.00 | 79 | 1013.9 |
| 20260905164536 | 88 | 343 | 0.0 | 3.5 | 0.00 | 0.01 | 0.00 | 80 | 1014.1 |
| 20260905164034 | 88 | 346 | 0.0 | 3.5 | 0.00 | 0.01 | 0.00 | 78 | 1014.1 |
| 20260905163533 | 89 | 334 | 0.0 | 4.3 | 0.00 | 0.01 | 0.00 | 73 | 1014.3 |
| 20260905163035 | 90 | 302 | 1.7 | 4.3 | 0.00 | 0.01 | 0.00 | 73 | 1014.3 |
| 20260905162535 | 90 | 324 | 0.9 | 3.5 | 0.00 | 0.01 | 0.00 | 77 | 1014.1 |
| 20260905162030 | 89 | 318 | 0.0 | 3.5 | 0.00 | 0.01 | 0.00 | 77 | 1014.3 |
| 20260905161530 | 89 | 319 | 0.9 | 3.5 | 0.00 | 0.01 | 0.00 | 78 | 1014.4 |
| 20260905161029 | 89 | 274 | 0.9 | 3.5 | 0.00 | 0.01 | 0.00 | 79 | 1014.4 |
| 20260905160527 | 88 | 346 | 0.9 | 3.5 | 0.00 | 0.01 | 0.00 | 79 | 1014.5 |
| 20260905160043 | 88 | 283 | 1.7 | 6.1 | 0.00 | 0.01 | 0.00 | 79 | 1014.5 |
| 20260905155525 | 88 | 294 | 0.9 | 6.1 | 0.00 | 0.01 | 0.00 | 80 | 1014.7 |
| 20260905155023 | 87 | 340 | 0.0 | 4.3 | 0.00 | 0.01 | 0.00 | 83 | 1014.7 |
| 20260905154524 | 87 | 188 | 0.9 | 4.3 | 0.00 | 0.01 | 0.00 | 82 | 1014.7 |
| 20260905154024 | 87 | 286 | 0.0 | 2.6 | 0.00 | 0.01 | 0.00 | 83 | 1014.8 |
| 20260905153524 | 87 | 286 | 0.0 | 4.3 | 0.00 | 0.01 | 0.00 | 83 | 1014.8 |
| 20260905153024 | 87 | 306 | 0.9 | 4.3 | 0.00 | 0.01 | 0.00 | 84 | 1014.7 |
| 20260905152522 | 87 | 334 | 0.0 | 3.5 | 0.00 | 0.01 | 0.00 | 84 | 1014.8 |
| 20260905152023 | 87 | 180 | 0.0 | 3.5 | 0.00 | 0.01 | 0.00 | 86 | 1014.8 |
| 20260905151520 | 86 | 302 | 0.9 | 3.5 | 0.00 | 0.01 | 0.00 | 85 | 1014.8 |
| 20260905151022 | 86 | 323 | 0.9 | 2.6 | 0.00 | 0.01 | 0.00 | 86 | 1014.7 |
| 20260905150516 | 85 | 205 | 1.7 | 3.5 | 0.00 | 0.01 | 0.00 | 87 | 1014.9 |
| 20260905150023 | 85 | 240 | 0.9 | 4.3 | 0.00 | 0.01 | 0.00 | 87 | 1014.9 |
| 20260905145516 | 84 | 198 | 0.9 | 4.3 | 0.00 | 0.01 | 0.00 | 88 | 1015.0 |
| 20260905145013 | 84 | 197 | 0.9 | 4.3 | 0.00 | 0.01 | 0.00 | 88 | 1015.0 |
| 20260905144536 | 84 | 278 | 0.9 | 3.5 | 0.00 | 0.01 | 0.00 | 88 | 1015.0 |
| 20260905144016 | 84 | 290 | 0.9 | 3.5 | 0.00 | 0.01 | 0.00 | 90 | 1015.0 |
| 20260905143511 | 83 | 217 | 0.0 | 1.7 | 0.00 | 0.01 | 0.00 | 89 | 1015.0 |
| 20260905143018 | 83 | 261 | 0.0 | 3.5 | 0.00 | 0.01 | 0.00 | 90 | 1015.1 |
| 20260905142508 | 83 | 261 | 0.9 | 3.5 | 0.00 | 0.01 | 0.00 | 90 | 1015.1 |
| 20260905142010 | 82 | 205 | 0.0 | 2.6 | 0.00 | 0.01 | 0.00 | 90 | 1015.0 |
| 20260905141506 | 82 | 205 | 0.0 | 3.5 | 0.00 | 0.01 | 0.00 | 91 | 1014.9 |
| 20260905141007 | 82 | 219 | 0.0 | 2.6 | 0.00 | 0.01 | 0.00 | 91 | 1015.0 |
| 20260905140504 | 82 | 39 | 0.0 | 2.6 | 0.00 | 0.01 | 0.00 | 91 | 1015.0 |
| 20260905140003 | 81 | 309 | 0.0 | 2.6 | 0.00 | 0.01 | 0.00 | 91 | 1015.0 |
| 20260905135501 | 81 | 225 | 0.0 | 4.3 | 0.00 | 0.01 | 0.00 | 91 | 1015.0 |
| 20260905135100 | 81 | 199 | 0.9 | 4.3 | 0.00 | 0.01 | 0.00 | 92 | 1014.9 |
| 20260905134607 | 80 | 254 | 0.0 | 2.6 | 0.00 | 0.01 | 0.00 | 92 | 1014.8 |
| 20260905134100 | 80 | 200 | 0.9 | 2.6 | 0.00 | 0.01 | 0.00 | 92 | 1014.8 |
| 20260905133558 | 80 | 289 | 0.0 | 1.7 | 0.00 | 0.01 | 0.00 | 93 | 1014.9 |
| 20260905133059 | 80 | 227 | 0.0 | 2.6 | 0.00 | 0.01 | 0.00 | 93 | 1014.8 |
| 20260905132556 | 79 | 278 | 0.0 | 2.6 | 0.00 | 0.01 | 0.00 | 94 | 1014.9 |
| 20260905132055 | 79 | 280 | 0.0 | 1.7 | 0.00 | 0.01 | 0.00 | 94 | 1014.8 |
| 20260905131558 | 78 | 288 | 0.9 | 2.6 | 0.00 | 0.01 | 0.00 | 95 | 1014.8 |
| 20260905131055 | 78 | 246 | 0.9 | 2.6 | 0.00 | 0.01 | 0.00 | 95 | 1014.9 |
| 20260905130552 | 78 | 271 | 0.0 | 0.0 | 0.00 | 0.01 | 0.00 | 95 | 1014.9 |
| 20260905130055 | 78 | 224 | 0.0 | 0.0 | 0.00 | 0.01 | 0.00 | 95 | 1014.9 |
| 20260905125549 | 77 | 215 | 0.0 | 0.0 | 0.00 | 0.01 | 0.00 | 95 | 1014.9 |
| 20260905125048 | 77 | 215 | 0.0 | 0.0 | 0.00 | 0.01 | 0.00 | 95 | 1014.9 |
| 20260905124547 | 77 | 214 | 0.0 | 0.0 | 0.00 | 0.01 | 0.00 | 95 | 1014.9 |
| 20260905124046 | 76 | 214 | 0.0 | 0.0 | 0.00 | 0.01 | 0.00 | 95 | 1015.0 |
| 20260905123545 | 76 | 214 | 0.0 | 1.7 | 0.00 | 0.01 | 0.00 | 95 | 1014.9 |